Location: Emblem
(62.4273°N, 6.4710°E)
Time: 00:35:51
(UTC+02:00)

UWE-3 - Pass Details

Date: 26 March 2023
Orbit: 577 x 669 km, 97.7° (Epoch: 06 June)

Event Time Altitude Azimuth Distance (km) Brightness Sun altitude
Rises 03:10:56 0° 21° (NNE) 3,032 ? -23.3°
Reaches altitude 10° 03:13:59 10° 43° (NE) 2,102 ? -23.1°
Maximum altitude 03:16:55 17° 82° (E) 1,685 ? -23.0°
Drops below altitude 10° 03:19:48 10° 122° (ESE) 2,064 ? -22.8°
Enters shadow 03:20:18 - 127° (SE) 2,189 ? -22.8°
